Lid_Strength_Index
13 13 11 13 13 13 15 13 16 14 13 12 12 11 10 10 10 10 10 11 12 13 14 16 17 17 17 17 18 17 18 18 18 18 18 18 18 18 17 17 17 17 17 16
14 13 12 14 12 12 12 12 13 12 13 9 10 10 9 9 9 10 11 10 11 14 15 16 17 17 17 18 18 17 18 18 18 18 18 18 18 18 18 17 17 17 17 16
16 15 15 19 14 12 12 11 11 15 11 10 11 11 10 10 10 10 10 10 12 14 15 15 16 16 17 17 17 18 18 18 18 18 18 18 18 18 18 18 17 17 17 17
16 21 21 14 13 11 11 11 10 10 10 10 11 10 9 8 9 9 9 10 12 14 15 15 16 16 17 17 18 18 18 18 18 18 18 18 18 19 18 18 17 17 17 17
19 18 17 15 14 13 13 13 10 10 9 11 10 10 11 8 8 8 8 9 12 13 14 15 16 16 17 17 18 18 18 18 18 18 18 18 19 19 18 18 18 18 16 17
19 21 24 15 13 11 11 16 13 12 10 12 11 14 13 9 8 8 9 10 14 15 15 16 17 17 17 18 18 18 18 18 18 18 18 19 19 18 17 17 17 16 17 17
18 23 19 13 13 11 18 15 13 13 12 11 12 11 10 9 9 9 12 14 14 14 15 15 17 16 17 17 18 18 18 18 19 19 18 18 18 18 18 18 18 18 18 18
21 18 20 13 13 14 12 13 13 13 13 12 11 12 11 11 13 14 15 15 15 16 15 16 17 16 17 18 18 19 19 19 19 20 18 18 19 18 18 19 20 20 20 19
16 15 12 12 12 11 12 12 13 13 13 12 12 12 13 14 15 15 15 16 16 16 18 17 17 17 17 18 19 20 20 21 21 20 18 18 20 20 21 20 21 21 20 21
14 13 13 12 12 12 12 12 12 12 13 12 12 13 14 15 15 15 16 17 18 18 19 19 19 17 17 19 19 22 22 21 21 21 21 21 20 20 21 23 23 21 22 23
16 14 13 12 12 12 12 12 12 13 13 12 12 13 14 15 16 17 17 18 18 18 18 20 20 20 21 21 22 22 22 21 21 21 23 22 21 22 21 21 21 25 25 24
18 14 13 14 15 14 13 13 13 13 14 13 12 14 15 16 17 17 18 19 20 20 20 21 22 23 24 24 23 23 22 22 23 23 24 23 24 24 20 18 17 17 17 19
16 16 15 15 15 15 15 15 15 15 14 13 14 15 16 17 19 19 20 20 20 19 21 22 23 24 27 27 26 26 25 24 25 24 25 25 25 25 26 24 20 19 18 18
15 15 15 15 15 14 15 16 17 19 19 18 18 20 20 20 21 19 19 20 22 22 23 23 24 25 27 29 29 29 28 25 25 25 26 26 26 25 26 27 27 26 23 21
18 19 18 19 19 20 21 20 21 20 21 20 22 19 19 19 20 20 24 24 24 25 27 26 26 25 28 28 27 28 27 27 28 27 25 25 26 26 27 28 28 28 28 24
27 27 25 23 24 24 24 23 21 22 23 23 23 23 24 24 24 25 26 25 23 23 24 25 26 27 28 28 27 28 28 26 25 26 25 26 26 26 26 27 28 28 28 28
23 23 24 24 25 25 23 25 24 23 24 24 23 26 25 26 29 29 29 30 30 27 26 25 24 26 27 26 27 27 28 27 25 27 26 27 27 27 28 30 30 30 28 26
25 26 27 24 24 25 25 27 26 25 23 24 26 26 25 23 22 26 28 30 29 28 29 26 26 26 27 28 27 27 25 26 27 26 26 26 27 27 29 29 29 29 27 26
29 26 28 27 27 26 26 26 26 26 24 23 24 22 24 26 27 28 28 28 28 27 24 26 23 26 27 28 27 26 26 26 26 26 26 26 27 29 30 30 29 28 27 27
29 30 30 29 30 28 26 28 27 26 26 25 26 26 27 28 28 28 27 25 24 24 29 29 25 26 27 27 24 26 25 25 24 25 26 28 28 28 28 27 27 27 27 26
28 30 30 29 29 31 30 30 27 27 29 26 24 25 25 28 29 26 27 26 24 26 25 25 25 26 26 26 25 25 25 25 25 26 27 27 27 27 27 26 27 27 26 25
30 28 30 30 28 28 29 29 27 26 27 28 29 28 27 27 28 27 27 24 24 25 26 27 26 25 25 24 26 25 26 26 26 26 26 27 28 27 27 28 27 26 25 25
29 29 29 28 27 27 30 28 29 27 28 29 27 26 25 25 25 24 24 26 27 25 26 26 25 23 24 28 28 28 28 26 27 27 27 28 28 28 29 28 27 26 25 25
28 28 27 29 29 26 23 27 28 28 27 25 25 27 25 24 25 26 26 24 24 25 26 25 22 23 29 31 31 28 27 26 27 28 27 26 29 29 29 28 26 25 25 25
26 28 28 26 24 25 25 27 25 25 25 26 27 28 27 26 25 27 26 26 24 27 27 24 22 25 32 31 28 29 30 30 30 31 32 32 32 32 30 28 27 26 26 26
26 25 26 26 24 25 26 26 24 27 24 25 27 28 27 27 26 27 27 27 28 28 30 29 28 30 30 31 32 32 31 32 31 32 32 32 31 30 30 29 28 27 26 26
27 26 27 26 27 26 24 24 23 25 26 25 27 28 27 27 27 28 28 29 30 30 31 31 30 31 33 34 34 33 33 33 32 33 35 32 31 30 29 28 28 27 27 26